Flag for U.S.A. Weather past 2 weeks in French Lick, Indiana, U.S.A.

Now
82 °F

Sunny.


Feels Like: 82 °F
Forecast: 65 / 86 °F
Wind: 7 mph from North

Location: Huntingburg Airport

Current Time: Aug 1, 2015 at 12:22:44 PM

Latest Report: Aug 1, 2015 at 11:55 AM


Visibility: 10 mi

Pressure: 30.05 "Hg

Humidity: 45%

Dew point: 59 °F

Location of French LickLocation

Historic Weather in French Lick — Graph

°F

French Lick temperature yesterday

Maximum temperature yesterday: 90 °F (at 3:55 PM)
Minimum temperature yesterday: 64 °F (at 3:35 AM)
Average temperature yesterday: 76 °F

Past Weeks' High & Low Weather Summary

 TemperatureHumidityPressure
High93 °F (Jul 18, 5:15 PM)94% (Jul 21, 12:55 AM)30.13 "Hg (Jul 21, 12:55 AM)
Low63 °F (Jul 22, 6:35 AM)38% (Jul 31, 3:55 PM)29.78 "Hg (Jul 21, 3:55 AM)
Average78 °F73%29.97 "Hg
* Reported Jul 17 10:15 AM — Aug 1 10:55 AM, French Lick, Weather by CustomWeather, © 2015

Note: Actual official high and low records may vary slightly from our data, if they occured in-between our weather recording intervals... More about our weather records

Advertising

French Lick weather history for previous 24 hours

 ConditionsComfort  
Time TempWeatherWind HumidityBarometerVisibility
10:55 AM
Sat, Aug 1
81 °FSunny.8 mph54%30.04 "Hg10 mi
10:35 AM79 °FSunny.5 mph58%30.05 "Hg10 mi
10:15 AM79 °FSunny.7 mph61%30.05 "Hg10 mi
9:55 AM77 °FSunny.6 mph65%30.05 "Hg10 mi
9:35 AM75 °FSunny.5 mph69%30.05 "Hg10 mi
9:15 AM75 °FSunny.6 mph69%30.04 "Hg10 mi
8:55 AM73 °FSunny.5 mph74%30.04 "Hg10 mi
8:35 AM73 °FSunny.5 mph74%30.03 "Hg10 mi
8:15 AM72 °FSunny.3 mph83%30.03 "Hg10 mi
7:55 AM70 °FSunny.No wind83%30.02 "Hg10 mi
7:35 AM68 °FClear.No wind88%30.02 "Hg10 mi
7:15 AM68 °FClear.3 mph88%30.02 "Hg10 mi
6:55 AM68 °FClear.No wind88%30.01 "Hg10 mi
6:35 AM66 °FClear.No wind94%30.00 "Hg10 mi
6:15 AM66 °FClear.No wind88%30.00 "Hg10 mi
5:55 AM66 °FClear.No wind88%30.00 "Hg10 mi
5:35 AM66 °FClear.No wind94%30.01 "Hg10 mi
5:15 AM66 °FClear.No wind94%30.00 "Hg10 mi
4:55 AM68 °FClear.No wind88%30.00 "Hg10 mi
4:35 AM68 °FClear.No wind88%30.00 "Hg10 mi
4:15 AM70 °FClear.No wind83%30.00 "Hg10 mi
3:55 AM70 °FClear.No wind83%30.00 "Hg10 mi
3:35 AM70 °FClear.No wind83%30.01 "Hg10 mi
3:15 AM72 °FPassing clouds.No wind83%30.01 "Hg10 mi
2:55 AM70 °FPartly cloudy.No wind88%30.01 "Hg10 mi
2:35 AM70 °FClear.No wind83%30.02 "Hg10 mi
2:15 AM70 °FPassing clouds.3 mph88%30.03 "Hg10 mi
1:55 AM70 °FPassing clouds.3 mph88%30.04 "Hg10 mi
1:35 AM72 °FClear.No wind83%30.03 "Hg10 mi
1:15 AM72 °FClear.No wind83%30.04 "Hg10 mi
12:55 AM72 °FClear.No wind83%30.03 "Hg10 mi
12:35 AM72 °FClear.No wind83%30.03 "Hg10 mi
11:55 PM
Fri, Jul 31
72 °FClear.No wind83%30.03 "Hg10 mi
11:15 PM73 °FClear.No wind78%30.02 "Hg10 mi
10:55 PM72 °FClear.3 mph83%30.02 "Hg10 mi
10:35 PM73 °FClear.No wind78%30.02 "Hg10 mi
10:15 PM73 °FClear.No wind83%30.01 "Hg10 mi
9:55 PM75 °FSunny.No wind78%30.01 "Hg10 mi
9:35 PM79 °FSunny.No wind65%30.00 "Hg10 mi
9:15 PM79 °FSunny.No wind65%29.99 "Hg10 mi
8:55 PM81 °FSunny.3 mph70%29.99 "Hg10 mi
8:35 PM81 °FSunny.3 mph66%29.99 "Hg10 mi
8:15 PM82 °FSunny.6 mph62%29.99 "Hg10 mi
7:55 PM84 °FPassing clouds.6 mph55%30.00 "Hg10 mi
7:35 PM82 °FSunny.5 mph58%30.00 "Hg10 mi
7:15 PM84 °FSunny.7 mph55%30.00 "Hg10 mi
6:55 PM86 °FSunny.8 mph49%30.01 "Hg10 mi
6:35 PM88 °FSunny.8 mph46%30.01 "Hg10 mi
5:35 PM88 °FSunny.7 mph43%30.02 "Hg10 mi
5:15 PM88 °FSunny.6 mph43%30.02 "Hg10 mi
4:55 PM88 °FSunny.6 mph40%30.03 "Hg10 mi
4:35 PM88 °FSunny.7 mph43%30.03 "Hg10 mi
4:15 PM88 °FSunny.7 mph43%30.03 "Hg10 mi
3:55 PM90 °FSunny.6 mph38%30.04 "Hg10 mi
3:35 PM88 °FSunny.5 mph43%30.04 "Hg10 mi
3:15 PM88 °FSunny.7 mph40%30.05 "Hg10 mi
2:55 PM88 °FSunny.7 mph43%30.06 "Hg10 mi
2:35 PM88 °FSunny.6 mph43%30.06 "Hg10 mi
2:15 PM88 °FSunny.3 mph43%30.07 "Hg10 mi
1:55 PM88 °FSunny.5 mph43%30.07 "Hg10 mi
1:35 PM86 °FSunny.3 mph46%30.08 "Hg10 mi
1:15 PM86 °FSunny.6 mph49%30.09 "Hg10 mi
12:55 PM86 °FSunny.8 mph46%30.09 "Hg10 mi
12:35 PM84 °FSunny.No wind51%30.09 "Hg10 mi
12:15 PM84 °FSunny.5 mph55%30.10 "Hg10 mi
Weather by CustomWeather, © 2015

See weather overviewHow to use our weather pages